Terminal Aerodrome Forecast
Issued by NWS Albany, NY

Current Version | Previous Version | Text Only | Print | Product List | Glossary On
Versions: 1 2 3 4 5 6 7 8 9 10 11 12 13 14 15 16 17
000 FTUS41 KALY 181120 TAFALB TAF KALB 181120Z 1812/1912 VRB03KT P6SM VCSH BKN025 OVC050 TEMPO 1812/1815 -SHSN SCT025 OVC050 FM181700 17006KT 6SM -SHSNRA BR OVC025 FM182100 17004KT 5SM BR OVC015=

USA.gov is the U.S. government's official web portal to all federal, state and local government web resources and services.